Clarksville, TN

10:27 PM CDT on October 23, 2017 (GMT -0500)
Outlaw

Weather History for KCKV - September, 2012

Change the Weather History Date:

Tuesday, September 4, 2012

  Actual Average Record
Temperature  
Mean Temperature 81 °F 74 °F  
Max Temperature 89 °F 86 °F 104 °F (1954)
Min Temperature 72 °F 62 °F 44 °F (1974)
Degree Days  
Heating Degree Days 0    
Month to date heating degree days 0  
Since 1 July heating degree days 0  
Cooling Degree Days 16    
Month to date cooling degree days 56  
Year to date cooling degree days  
Growing Degree Days 31 (Base 50)    
Moisture  
Dew Point 73 °F    
Average Humidity 75    
Maximum Humidity 94    
Minimum Humidity 56    
Precipitation  
Precipitation 0.00 in 0.10 in 1.48 in (2008)
Month to date precipitation 1.46 0.40  
Year to date precipitation 33.53  
Sea Level Pressure  
Sea Level Pressure 29.87 in    
Wind  
Wind Speed 3 mph (NNW)    
Max Wind Speed 12 mph    
Max Gust Speed 15 mph    
Visibility 5 miles    
Events Fog    
T = Trace of Precipitation, MM = Missing Value Source: NWS Daily Summary

Daily Weather History Graph

Daily Weather History Graph

Search for Another Location

Airport or City:

Trip Planner

Search our weather history database for the weather conditions in past years. The results will help you decide how hot, cold, wet, or windy it might be!

Date:

Astronomy

Sep. 04, 2012 Rise Set
Actual Time 6:23 AM CDT 7:12 PM CDT
Civil Twilight 5:57 AM CDT 7:38 PM CDT
Nautical Twilight 5:26 AM CDT 8:09 PM CDT
Astronomical Twilight 4:54 AM CDT 8:41 PM CDT
Moon 9:14 PM CDT (9/4) 10:21 AM CDT (9/4)
Length of Visible Light 13h 41m
Length of Day
12h 49m
Waning Gibbous, 83% of the Moon is Illuminated
Sep 4
Waning Gibbous
Sep 8
Last Quarter
Sep 15
New
Sep 22
First Quarter
Sep 29
Full

Hourly Weather History & Observations

Time (CDT) Temp. Heat Index Dew Point Humidity Pressure Visibility Wind Dir Wind Speed Gust Speed Precip Events Conditions
12:47 AM 75.2 °F - 73.4 °F 94% 29.87 in 6.0 mi Calm Calm - N/A   Overcast
12:52 AM 75.0 °F - 73.9 °F 96% 29.86 in 7.0 mi Calm Calm - N/A   Overcast
1:52 AM 75.0 °F - 73.9 °F 96% 29.85 in 6.0 mi Calm Calm - N/A   Overcast
2:10 AM 75.2 °F - 73.4 °F 94% 29.87 in 5.0 mi NNW 3.5 mph - N/A   Overcast
2:52 AM 75.9 °F - 73.9 °F 94% 29.86 in 2.5 mi Calm Calm - N/A   Overcast
3:38 AM 75.2 °F - 73.4 °F 94% 29.87 in 1.2 mi Calm Calm - N/A   Overcast
3:47 AM 75.2 °F - 73.4 °F 94% 29.87 in 0.5 mi NNW 3.5 mph - N/A Fog Fog
3:52 AM 75.0 °F - 73.9 °F 96% 29.86 in 0.8 mi NNW 3.5 mph - N/A   Mist
4:03 AM 75.2 °F - 73.4 °F 94% 29.87 in 1.5 mi Calm Calm - N/A   Overcast
4:16 AM 75.2 °F - 73.4 °F 94% 29.87 in 2.5 mi NNW 3.5 mph - N/A   Overcast
4:23 AM 75.2 °F - 73.4 °F 94% 29.87 in 3.0 mi NNW 3.5 mph - N/A   Overcast
4:30 AM 75.2 °F - 73.4 °F 94% 29.87 in 2.5 mi NNW 4.6 mph - N/A   Overcast
4:45 AM 75.2 °F - 73.4 °F 94% 29.86 in 3.0 mi Calm Calm - N/A   Overcast
4:52 AM 75.0 °F - 73.9 °F 96% 29.85 in 2.5 mi North 3.5 mph - N/A   Overcast
5:52 AM 75.0 °F - 73.9 °F 96% 29.86 in 2.0 mi North 3.5 mph - N/A   Overcast
6:39 AM 75.2 °F - 73.4 °F 94% 29.86 in 1.8 mi Calm Calm - N/A   Overcast
6:52 AM 75.0 °F - 73.9 °F 96% 29.86 in 1.8 mi Calm Calm - N/A   Overcast
7:02 AM 75.2 °F - 73.4 °F 94% 29.88 in 2.0 mi Calm Calm - N/A   Overcast
7:40 AM 75.2 °F - 73.4 °F 94% 29.89 in 2.5 mi West 3.5 mph - N/A   Overcast
7:52 AM 75.9 °F - 73.9 °F 94% 29.88 in 3.0 mi Calm Calm - N/A   Overcast
8:52 AM 77.0 °F - 73.9 °F 90% 29.89 in 4.0 mi WNW 3.5 mph - N/A   Overcast
10:03 AM 78.8 °F - 73.4 °F 83% 29.92 in 5.0 mi NNW 6.9 mph - N/A   Haze
10:52 AM 80.1 °F 84.5 °F 73.9 °F 81% 29.91 in 6.0 mi NNW 6.9 mph - N/A   Haze
11:08 AM 80.6 °F 85.4 °F 73.4 °F 79% 29.93 in 7.0 mi NNW 6.9 mph - N/A   Mostly Cloudy
11:38 AM 82.4 °F 88.2 °F 73.4 °F 74% 29.93 in 9.0 mi North 5.8 mph - N/A   Mostly Cloudy
11:52 AM 82.0 °F 87.4 °F 73.0 °F 74% 29.91 in 9.0 mi North 11.5 mph - N/A   Overcast
12:20 PM 82.4 °F 89.5 °F 75.2 °F 79% 29.91 in 9.0 mi North 6.9 mph - N/A   Mostly Cloudy
12:52 PM 86.0 °F 93.0 °F 73.0 °F 65% 29.89 in 10.0 mi North 8.1 mph - N/A   Partly Cloudy
1:52 PM 87.1 °F 94.5 °F 73.0 °F 63% 29.88 in 10.0 mi North 5.8 mph - N/A   Mostly Cloudy
3:52 PM 89.1 °F 96.0 °F 72.0 °F 57% 29.85 in 10.0 mi North 4.6 mph - N/A   Scattered Clouds
4:52 PM 88.0 °F 94.7 °F 72.0 °F 59% 29.84 in 10.0 mi NNE 4.6 mph - N/A   Partly Cloudy
5:52 PM 88.0 °F 94.7 °F 72.0 °F 59% 29.85 in 10.0 mi North 3.5 mph - N/A   Clear
6:52 PM 84.0 °F 90.2 °F 73.0 °F 69% 29.85 in 10.0 mi Calm Calm - N/A   Clear
7:52 PM 80.1 °F 83.8 °F 72.0 °F 76% 29.85 in 10.0 mi Calm Calm - N/A   Clear
8:52 PM 79.0 °F - 73.0 °F 82% 29.86 in 9.0 mi Calm Calm - N/A   Clear
9:52 PM 77.0 °F - 73.0 °F 88% 29.86 in 7.0 mi Calm Calm - N/A   Clear
10:52 PM 75.0 °F - 72.0 °F 90% 29.87 in 6.0 mi Calm Calm - N/A   Clear
11:47 PM 73.4 °F - 71.6 °F 94% 29.88 in 1.8 mi Calm Calm - N/A   Clear
11:52 PM 73.9 °F - 72.0 °F 93% 29.86 in 1.5 mi Calm Calm - N/A   Clear